EW6810 Weather Reports


Display with metric or nautical units.
time (UTC)temp
F
wind
direction
speed
MPH
gust
MPH
rain 1hr
in
rain 24hr
in
rain mn
in
humidity
%
barometer
mb
20260903065602 54 349 1.0 5.0 0.00 0.85 0.83 93 1003.2
20260903065059 54 346 1.0 5.0 0.00 0.85 0.83 93 1003.0
20260903064559 54 327 1.0 4.0 0.00 0.85 0.83 93 1003.1
20260903064059 54 14 0.0 6.0 0.00 0.85 0.83 93 1003.2
20260903063558 54 340 1.0 6.0 0.00 0.85 0.83 93 1003.1
20260903063059 54 28 1.0 4.0 0.00 0.85 0.83 93 1003.0
20260903062659 54 6 2.0 5.0 0.00 0.85 0.83 93 1003.1
20260903062100 54 148 0.0 5.0 0.00 0.85 0.83 93 1003.1
20260903061557 54 78 0.0 4.0 0.00 0.85 0.83 93 1003.0
20260903061057 54 41 2.0 4.0 0.00 0.85 0.83 93 1003.0
20260903060658 54 41 0.0 6.0 0.00 0.85 0.83 93 1002.9
20260903060057 54 24 1.0 6.0 0.00 0.85 0.83 93 1002.9
20260903055557 54 18 1.0 4.0 0.00 0.85 0.83 93 1002.9
20260903055057 54 7 1.0 5.0 0.00 0.85 0.83 93 1002.9
20260903054555 54 5 1.0 5.0 0.00 0.85 0.83 92 1003.0
20260903054055 54 357 1.0 7.0 0.00 0.85 0.83 93 1003.0
20260903053558 54 348 1.0 6.0 0.00 0.85 0.83 93 1003.0
20260903053055 54 36 2.0 6.0 0.00 0.85 0.83 93 1003.0
20260903052552 54 26 2.0 5.0 0.00 0.85 0.83 92 1002.9
20260903052051 54 172 2.0 5.0 0.00 0.85 0.83 92 1002.7
20260903051557 54 3 1.0 6.0 0.00 0.85 0.83 92 1002.6
20260903051052 54 201 1.0 6.0 0.02 0.85 0.83 92 1002.5
20260903050550 55 17 1.0 4.0 0.16 0.85 0.83 92 1002.4
20260903050049 55 4 1.0 4.0 0.21 0.85 0.83 92 1002.3
20260903045549 55 350 1.0 4.0 0.21 0.85 0.83 92 1002.3
20260903045050 55 23 1.0 9.0 0.21 0.85 0.83 92 1002.3
20260903044549 55 21 2.0 11.0 0.21 0.85 0.83 92 1002.0
20260903044048 55 2 1.0 11.0 0.21 0.85 0.83 92 1002.0
20260903043547 55 47 2.0 11.0 0.21 0.85 0.83 92 1001.9
20260903043047 56 346 2.0 11.0 0.22 0.85 0.83 91 1001.7
20260903042647 56 11 1.0 7.0 0.22 0.85 0.83 91 1001.6
20260903042047 56 29 2.0 8.0 0.22 0.85 0.83 91 1001.5
20260903041546 56 65 1.0 8.0 0.22 0.85 0.83 91 1001.4
20260903041045 56 8 2.0 8.0 0.19 0.82 0.80 91 1001.4
20260903040545 56 168 1.0 8.0 0.04 0.67 0.65 90 1001.2
20260903040045 56 161 2.0 8.0 0.01 0.64 0.62 90 1000.6
20260903035544 56 39 2.0 9.0 0.01 0.64 0.62 90 1000.4
20260903035044 56 350 2.0 9.0 0.01 0.64 0.62 90 1000.4
20260903034544 56 115 1.0 8.0 0.01 0.64 0.62 90 1000.4
20260903034047 56 19 2.0 8.0 0.01 0.64 0.62 91 1000.3
20260903033544 56 18 2.0 14.0 0.01 0.64 0.62 91 1000.3
20260903033044 56 88 4.0 14.0 0.00 0.63 0.61 91 1000.3
20260903032541 56 2 2.0 9.0 0.00 0.63 0.61 91 1000.3
20260903032041 56 33 3.0 10.0 0.00 0.63 0.61 91 1000.4
20260903031540 56 350 1.0 10.0 0.00 0.63 0.61 91 1000.3
20260903031041 56 30 1.0 9.0 0.00 0.63 0.61 91 1000.4
20260903030641 56 37 2.0 13.0 0.00 0.63 0.61 91 1000.4
20260903030054 56 46 3.0 14.0 0.01 0.63 0.61 91 1000.2
20260903025553 56 59 6.0 14.0 0.02 0.63 0.61 91 1000.3
20260903025053 55 56 1.0 13.0 0.03 0.63 0.61 91 1000.2
20260903024553 55 342 3.0 13.0 0.05 0.63 0.61 91 1000.2
20260903024052 55 40 3.0 9.0 0.06 0.63 0.61 91 1000.2
20260903023557 55 43 3.0 12.0 0.07 0.63 0.61 91 1000.2
20260903023054 55 25 2.0 14.0 0.08 0.63 0.61 91 1000.1
20260903022553 55 21 4.0 14.0 0.08 0.63 0.61 91 1000.2
20260903022054 55 93 4.0 12.0 0.09 0.63 0.61 91 1000.0
20260903021552 55 14 5.0 12.0 0.09 0.63 0.61 91 1000.1
20260903021050 55 350 3.0 15.0 0.09 0.63 0.61 91 1000.1
20260903020549 55 350 5.0 15.0 0.09 0.62 0.61 91 1000.1
20260903020052 55 356 3.0 10.0 0.09 0.61 0.60 91 1000.2
20260903015549 55 156 1.0 11.0 0.09 0.61 0.59 91 1000.2
20260903015051 55 321 1.0 11.0 0.08 0.59 0.56 91 1000.1
20260903014605 55 67 2.0 6.0 0.09 0.57 0.56 91 1000.1
20260903014047 55 117 1.0 11.0 0.09 0.56 0.55 91 1000.1
20260903013547 56 76 2.0 13.0 0.09 0.56 0.54 91 1000.1
20260903013046 56 295 5.0 13.0 0.09 0.55 0.54 91 1000.2
20260903012547 56 16 2.0 12.0 0.09 0.55 0.54 90 1000.3
20260903012044 56 325 4.0 12.0 0.09 0.54 0.53 90 1000.2
20260903011545 56 321 3.0 12.0 0.09 0.54 0.52 90 1000.1
20260903011044 56 338 3.0 12.0 0.10 0.54 0.52 90 1000.2
20260903010543 56 15 4.0 12.0 0.11 0.53 0.51 90 1000.1
20260903010043 56 18 1.0 8.0 0.13 0.52 0.50 90 1000.3
20260903005546 56 40 2.0 10.0 0.16 0.51 0.50 90 1000.3
20260903005042 56 3 2.0 10.0 0.17 0.51 0.50 89 1000.5
20260903004546 57 336 2.0 10.0 0.17 0.50 0.48 89 1000.4
20260903004046 57 36 1.0 10.0 0.16 0.48 0.46 89 1000.3
20260903003541 57 359 2.0 8.0 0.16 0.47 0.46 89 1000.3
20260903003042 58 152 1.0 7.0 0.15 0.46 0.45 89 1000.2
20260903002541 58 8 1.0 6.0 0.15 0.46 0.45 89 1000.3
20260903002041 58 344 1.0 4.0 0.15 0.46 0.44 88 1000.4
20260903001541 58 12 0.0 3.0 0.13 0.44 0.43 88 1000.4
20260903001040 59 13 1.0 5.0 0.12 0.43 0.42 87 1000.4
20260903000640 59 32 1.0 5.0 0.11 0.42 0.40 87 1000.4
20260903000037 59 11 1.0 3.0 0.08 0.39 0.37 86 1000.4
20260902235537 59 5 0.0 3.0 0.05 0.35 0.34 86 1000.3
20260902235036 60 3 0.0 3.0 0.04 0.35 0.33 85 1000.2
20260902234537 60 16 0.0 6.0 0.02 0.33 0.31 84 1000.1
20260902234036 60 15 1.0 6.0 0.02 0.32 0.31 83 1000.0
20260902233540 60 7 1.0 9.0 0.01 0.31 0.30 82 1000.0
20260902233037 61 38 3.0 9.0 0.01 0.31 0.30 81 999.9
20260902232537 61 13 1.0 8.0 0.01 0.31 0.30 80 1000.0
20260902232035 61 360 2.0 6.0 0.00 0.31 0.28 80 999.9
20260902231535 61 350 2.0 6.0 0.00 0.31 0.28 79 999.9
20260902231039 62 134 2.0 6.0 0.00 0.31 0.28 78 999.8
20260902230634 62 144 1.0 6.0 0.00 0.31 0.28 77 999.8
20260902230100 62 179 2.0 7.0 0.00 0.31 0.28 77 999.7
20260902225556 62 111 1.0 10.0 0.00 0.31 0.28 76 999.6
20260902225056 62 44 1.0 10.0 0.00 0.31 0.28 73 999.5
20260902224553 63 132 0.0 8.0 0.00 0.31 0.28 75 999.6
20260902224052 63 18 2.0 8.0 0.00 0.31 0.28 75 999.5
20260902223552 63 342 1.0 10.0 0.00 0.31 0.28 75 999.5
20260902223051 62 9 4.0 10.0 0.00 0.31 0.28 77 999.6
20260902222549 62 36 3.0 8.0 0.00 0.31 0.28 82 999.7
20260902222048 62 13 0.0 4.0 0.01 0.31 0.28 84 999.7
20260902221549 62 6 1.0 7.0 0.02 0.31 0.28 84 999.8
20260902221050 61 21 1.0 7.0 0.02 0.31 0.28 85 999.8
20260902220646 61 28 0.0 3.0 0.02 0.31 0.28 88 1000.0
20260902220044 60 342 1.0 5.0 0.02 0.31 0.28 88 999.9
20260902215543 60 55 1.0 5.0 0.02 0.31 0.28 88 1000.0
20260902215042 60 38 0.0 3.0 0.02 0.31 0.28 89 1000.1
20260902214544 60 36 1.0 4.0 0.02 0.31 0.28 88 1000.0
20260902214042 60 28 1.0 5.0 0.02 0.31 0.28 88 1000.1
20260902213641 60 171 1.0 7.0 0.02 0.31 0.28 88 1000.2
20260902213041 60 319 1.0 7.0 0.02 0.31 0.28 85 1000.3
20260902212540 61 275 1.0 5.0 0.02 0.31 0.28 84 1000.3
20260902212040 61 24 1.0 5.0 0.01 0.30 0.28 83 1000.2
20260902211542 61 7 3.0 5.0 0.00 0.28 0.28 83 1000.2
20260902211044 61 335 0.0 4.0 0.00 0.28 0.28 83 1000.3
20260902210639 61 345 0.0 5.0 0.00 0.28 0.28 85 1000.3
20260902210053 61 254 2.0 5.0 0.00 0.28 0.28 87 1000.2
20260902205540 60 288 0.0 4.0 0.00 0.28 0.28 88 1000.3
20260902205039 60 61 0.0 6.0 0.00 0.28 0.28 88 1000.3
20260902204539 60 59 1.0 6.0 0.00 0.28 0.28 86 1000.4
20260902204038 60 299 1.0 2.0 0.00 0.28 0.28 86 1000.3
20260902203538 60 288 1.0 2.0 0.00 0.28 0.28 86 1000.4
20260902203038 60 291 0.0 2.0 0.00 0.28 0.28 85 1000.4
20260902202537 60 291 0.0 3.0 0.00 0.28 0.28 85 1000.5
20260902202037 60 284 0.0 5.0 0.00 0.28 0.28 85 1000.5
20260902201539 60 284 2.0 5.0 0.00 0.28 0.28 85 1000.5
20260902201035 60 349 0.0 3.0 0.00 0.28 0.28 85 1000.6
20260902200635 60 348 0.0 3.0 0.00 0.28 0.28 85 1000.6
20260902200055 60 348 2.0 3.0 0.00 0.28 0.28 85 1000.7
20260902195554 60 356 1.0 5.0 0.00 0.28 0.28 84 1000.8
20260902195054 60 351 1.0 5.0 0.00 0.28 0.28 84 1000.8
20260902194554 60 5 1.0 4.0 0.00 0.28 0.28 84 1000.8
20260902194053 60 3 2.0 4.0 0.00 0.28 0.28 83 1001.0
20260902193553 60 16 1.0 3.0 0.00 0.28 0.28 83 1000.9
20260902193052 60 16 2.0 3.0 0.00 0.28 0.28 83 1001.0
20260902192551 60 16 1.0 4.0 0.00 0.28 0.28 83 1001.1
20260902192054 60 17 1.0 4.0 0.00 0.28 0.28 83 1001.1
20260902191555 60 19 1.0 5.0 0.00 0.28 0.28 83 1001.2
20260902191050 60 152 1.0 8.0 0.00 0.28 0.28 83 1001.3
20260902190650 60 46 1.0 8.0 0.00 0.28 0.28 85 1001.2
20260902190044 60 8 0.0 4.0 0.00 0.28 0.28 84 1001.3
20260902185542 61 357 1.0 2.0 0.00 0.28 0.28 84 1001.4
20260902185042 61 358 0.0 3.0 0.00 0.28 0.28 83 1001.3
20260902184543 61 358 1.0 6.0 0.00 0.28 0.28 83 1001.4
20260902184040 61 357 1.0 6.0 0.00 0.28 0.28 83 1001.4
20260902183540 61 7 1.0 4.0 0.00 0.28 0.28 82 1001.5
20260902183040 61 349 0.0 4.0 0.00 0.28 0.28 82 1001.5
20260902182539 61 341 0.0 4.0 0.00 0.28 0.28 82 1001.6
20260902182041 61 22 0.0 2.0 0.00 0.28 0.28 83 1001.7
20260902181538 61 22 0.0 9.0 0.00 0.28 0.28 82 1001.8
20260902181037 60 22 1.0 9.0 0.00 0.28 0.28 81 1001.8
20260902180535 60 163 2.0 8.0 0.00 0.28 0.28 82 1001.8
20260902180034 60 152 2.0 8.0 0.00 0.28 0.28 84 1001.8
20260902175534 59 325 1.0 5.0 0.00 0.28 0.28 87 1001.8
20260902175033 59 139 0.0 5.0 0.00 0.28 0.28 87 1001.9
20260902174534 59 111 1.0 5.0 0.00 0.28 0.28 85 1001.9
20260902174033 59 332 1.0 5.0 0.00 0.28 0.28 86 1001.9
20260902173533 59 330 0.0 8.0 0.00 0.28 0.28 85 1001.9
20260902173037 59 344 1.0 11.0 0.00 0.28 0.28 85 1001.9
20260902172531 59 333 1.0 11.0 0.00 0.28 0.28 85 1002.0
20260902172031 59 38 2.0 7.0 0.00 0.28 0.28 85 1002.0
20260902171531 59 111 1.0 7.0 0.00 0.28 0.28 84 1001.9
20260902171031 60 192 1.0 5.0 0.00 0.28 0.28 85 1001.9
20260902170630 60 27 0.0 8.0 0.00 0.28 0.28 85 1001.8
20260902170057 60 27 2.0 12.0 0.00 0.28 0.28 84 1001.9
20260902165556 60 17 0.0 12.0 0.00 0.28 0.28 84 1001.9
20260902165056 60 33 2.0 8.0 0.00 0.28 0.28 84 1001.9
20260902164556 60 338 1.0 10.0 0.00 0.28 0.28 86 1001.9
20260902164052 59 11 2.0 10.0 0.00 0.28 0.28 86 1001.9
20260902163552 59 33 3.0 14.0 0.00 0.28 0.28 87 1002.0
20260902163057 58 63 4.0 14.0 0.00 0.28 0.28 89 1001.9
20260902162549 57 74 1.0 7.0 0.00 0.28 0.28 91 1001.9
20260902162047 57 9 1.0 5.0 0.00 0.28 0.28 92 1002.1
20260902161546 57 343 1.0 9.0 0.00 0.28 0.28 92 1002.2
20260902161045 57 67 3.0 9.0 0.00 0.28 0.28 92 1002.1
20260902160646 57 10 0.0 8.0 0.00 0.28 0.28 92 1002.2
20260902160047 56 348 2.0 14.0 0.00 0.28 0.28 92 1002.2
20260902155545 56 358 4.0 14.0 0.00 0.28 0.28 92 1002.3
20260902155044 56 66 3.0 12.0 0.00 0.28 0.28 92 1002.3
20260902154549 56 348 1.0 10.0 0.00 0.28 0.28 93 1002.4
20260902154043 56 6 2.0 10.0 0.00 0.28 0.28 93 1002.5
20260902153543 56 32 4.0 10.0 0.00 0.28 0.28 93 1002.5
20260902153045 56 15 1.0 9.0 0.00 0.28 0.28 93 1002.4
20260902152542 56 350 2.0 7.0 0.00 0.28 0.28 93 1002.5
20260902152041 56 5 3.0 7.0 0.00 0.28 0.28 93 1002.5
20260902151541 56 16 2.0 7.0 0.01 0.28 0.28 93 1002.5
20260902151040 56 80 1.0 5.0 0.03 0.28 0.28 93 1002.6
20260902150641 56 16 1.0 15.0 0.05 0.28 0.28 93 1002.7
20260902150033 56 20 4.0 15.0 0.06 0.28 0.28 93 1002.7
20260902145633 56 55 0.0 7.0 0.06 0.28 0.28 93 1002.8
20260902145033 56 326 1.0 6.0 0.06 0.28 0.28 93 1002.8
20260902144536 56 13 2.0 5.0 0.06 0.28 0.28 93 1002.8
20260902144030 56 26 1.0 4.0 0.06 0.28 0.28 93 1002.8
20260902143530 56 30 1.0 6.0 0.06 0.28 0.28 93 1002.9
20260902143030 56 14 0.0 7.0 0.06 0.28 0.28 93 1002.9
20260902142531 56 121 2.0 6.0 0.06 0.28 0.28 93 1002.9
20260902142029 56 321 1.0 5.0 0.06 0.28 0.28 93 1002.9
20260902141534 56 121 1.0 6.0 0.04 0.28 0.26 93 1002.9
20260902141028 56 336 1.0 7.0 0.02 0.26 0.24 93 1003.0
20260902140526 56 5 2.0 7.0 0.00 0.24 0.22 93 1002.8
20260902140034 56 345 2.0 5.0 0.00 0.24 0.22 93 1002.8
20260902135529 56 136 1.0 7.0 0.00 0.24 0.22 93 1002.8
20260902135025 56 20 1.0 7.0 0.00 0.24 0.22 93 1002.8
20260902134526 56 18 1.0 9.0 0.00 0.24 0.22 93 1002.8
20260902134024 56 341 2.0 9.0 0.00 0.24 0.22 93 1002.8
20260902133524 56 360 1.0 4.0 0.00 0.24 0.22 93 1002.8
20260902133024 56 357 1.0 5.0 0.00 0.24 0.22 93 1002.7
20260902132523 56 358 1.0 5.0 0.00 0.24 0.22 93 1002.7
20260902132023 56 359 2.0 6.0 0.00 0.24 0.22 93 1002.7
20260902131538 56 338 1.0 6.0 0.00 0.24 0.22 93 1002.7
20260902131022 56 9 0.0 7.0 0.00 0.24 0.22 93 1002.7
20260902130523 56 25 1.0 7.0 0.00 0.24 0.22 92 1002.7
20260902130024 56 25 0.0 2.0 0.00 0.24 0.22 92 1002.7
20260902125521 56 25 0.0 3.0 0.00 0.24 0.22 92 1002.8
20260902125021 56 25 0.0 9.0 0.00 0.24 0.22 92 1002.9
20260902124521 56 25 1.0 9.0 0.01 0.24 0.22 92 1002.9
20260902124020 56 13 1.0 4.0 0.02 0.24 0.22 92 1003.0
20260902123521 56 28 1.0 4.0 0.02 0.24 0.22 92 1002.9
20260902123020 56 67 1.0 5.0 0.02 0.24 0.22 92 1003.0
20260902122519 56 348 1.0 5.0 0.03 0.24 0.22 92 1003.0
20260902122019 56 149 2.0 9.0 0.04 0.24 0.22 92 1003.0
20260902121517 56 21 3.0 7.0 0.04 0.24 0.22 92 1003.1
20260902121017 56 22 1.0 11.0 0.07 0.24 0.22 92 1003.1
20260902120516 56 358 4.0 11.0 0.09 0.24 0.22 92 1003.2
20260902120017 56 38 2.0 5.0 0.09 0.24 0.22 92 1003.2
20260902115515 56 9 0.0 3.0 0.09 0.24 0.22 92 1003.1
20260902115020 56 111 2.0 5.0 0.09 0.24 0.22 92 1003.3
20260902114520 56 53 2.0 5.0 0.10 0.23 0.21 92 1003.3
20260902114016 56 354 1.0 7.0 0.10 0.22 0.20 92 1003.3
20260902113514 56 11 1.0 7.0 0.09 0.21 0.20 92 1003.4
20260902113011 56 221 0.0 5.0 0.10 0.21 0.20 92 1003.5
20260902112515 56 359 0.0 5.0 0.09 0.20 0.19 92 1003.5
20260902112010 56 24 2.0 6.0 0.09 0.20 0.18 92 1003.6
20260902111515 56 11 2.0 5.0 0.09 0.20 0.18 92 1003.7
20260902111008 57 328 1.0 5.0 0.07 0.17 0.15 92 1003.7
20260902110508 57 27 0.0 6.0 0.06 0.15 0.13 92 1003.7
20260902110008 57 28 1.0 6.0 0.05 0.14 0.13 92 1003.7
20260902105506 57 54 1.0 6.0 0.05 0.14 0.13 92 1003.8
20260902105006 57 152 2.0 5.0 0.06 0.14 0.13 92 1003.8
20260902104512 57 31 1.0 10.0 0.05 0.13 0.11 92 1003.8
20260902104005 57 15 2.0 10.0 0.05 0.12 0.10 91 1003.9
20260902103504 57 39 1.0 8.0 0.06 0.12 0.10 92 1003.9
20260902103005 57 354 1.0 7.0 0.06 0.11 0.09 92 1004.0
20260902102502 57 11 1.0 7.0 0.07 0.11 0.09 92 1004.0
20260902102002 57 254 0.0 5.0 0.06 0.10 0.09 91 1004.0
20260902101501 57 101 0.0 6.0 0.07 0.10 0.09 91 1004.1
20260902101000 58 173 1.0 6.0 0.07 0.09 0.08 91 1004.0
20260902100502 58 38 0.0 8.0 0.07 0.09 0.08 91 1004.0
20260902100122 58 19 1.0 8.0 0.07 0.09 0.08 91 1004.1
20260902095559 58 221 1.0 4.0 0.08 0.09 0.08 91 1004.0
20260902095059 58 229 0.0 4.0 0.06 0.08 0.06 91 1004.1
20260902094558 58 61 0.0 4.0 0.06 0.08 0.06 91 1004.1
20260902094058 58 144 1.0 6.0 0.06 0.07 0.06 91 1004.0
20260902093558 58 2 0.0 6.0 0.05 0.06 0.05 91 1004.0
20260902093101 59 84 0.0 3.0 0.04 0.06 0.04 90 1004.1
20260902092557 59 254 0.0 3.0 0.02 0.04 0.02 90 1004.1
20260902092058 59 254 0.0 3.0 0.02 0.04 0.02 90 1004.1
20260902091607 59 256 0.0 3.0 0.02 0.03 0.02 90 1004.3
20260902091053 59 257 0.0 6.0 0.02 0.03 0.02 90 1004.3
20260902090553 59 106 1.0 4.0 0.01 0.02 0.01 89 1004.3
20260902090053 59 32 1.0 4.0 0.01 0.02 0.01 89 1004.3
20260902085554 59 144 0.0 3.0 0.00 0.02 0.00 89 1004.4
20260902085052 59 187 0.0 5.0 0.00 0.02 0.00 89 1004.4
20260902084552 59 4 2.0 5.0 0.00 0.02 0.00 89 1004.4
20260902084052 59 37 0.0 4.0 0.00 0.02 0.00 89 1004.4
20260902083551 59 121 0.0 4.0 0.00 0.02 0.00 89 1004.4
20260902083051 59 159 0.0 8.0 0.00 0.02 0.00 89 1004.4
20260902082554 59 140 2.0 8.0 0.00 0.02 0.00 89 1004.4
20260902082050 59 71 1.0 7.0 0.00 0.02 0.00 89 1004.4
20260902081549 59 150 0.0 5.0 0.00 0.02 0.00 89 1004.4
20260902081049 59 61 0.0 2.0 0.00 0.02 0.00 89 1004.4
20260902080548 59 117 0.0 4.0 0.00 0.02 0.00 89 1004.4
20260902080103 59 46 1.0 5.0 0.00 0.02 0.00 89 1004.4
20260902075547 59 337 0.0 7.0 0.00 0.02 0.00 89 1004.5
20260902075049 59 40 2.0 7.0 0.00 0.02 0.00 89 1004.5
20260902074549 59 348 1.0 3.0 0.00 0.02 0.00 89 1004.5
20260902074050 59 23 0.0 3.0 0.00 0.02 0.00 89 1004.5
20260902073546 59 48 1.0 3.0 0.00 0.02 0.00 89 1004.5
20260902073054 59 111 1.0 4.0 0.00 0.02 0.00 90 1004.5
20260902072548 59 210 0.0 4.0 0.01 0.02 0.00 89 1004.5
20260902072043 59 338 1.0 7.0 0.01 0.02 0.00 90 1004.5
20260902071556 59 5 0.0 7.0 0.01 0.02 0.00 90 1004.5
20260902071040 59 9 1.0 6.0 0.01 0.02 0.00 90 1004.5
20260902070539 59 346 1.0 7.0 0.01 0.02 0.00 90 1004.5
20260902070037 59 11 1.0 7.0 0.02 0.02 0.00 89 1004.6